ECHOSTAR 15

Last updated on Sat Apr 13 2024 01:02:37 GMT+0100 (British Summer Time)

1 36792U 10034A 24103.56924240 -.00000290 00000+0 00000+0 0 9997 2 36792 0.0627 83.1743 0002244 267.0271 354.3340 1.00271312 50348
UTC large
Height (km)
Speed (km/s)
/
Latitude / Longitude
Inclination (degrees)
Orbital Period (minutes)
Azimuth
Elevation
Range (km)
Doppler Factor

Next 0 passes for location: London (51.5072 / 0.1276)

Sorry there are no passes over London.